FW5795 Weather Reports


Display with metric or nautical units.
time (UTC)temp
F
wind
direction
speed
MPH
gust
MPH
rain 1hr
in
rain 24hr
in
rain mn
in
humidity
%
barometer
mb
20260505014509 62 175 6.0 14.0 0.00 0.00 0.00 42 1011.0
20260505014010 62 201 6.0 14.0 0.00 0.00 0.00 41 1010.9
20260505013510 63 163 6.0 16.0 0.00 0.00 0.00 41 1010.8
20260505013014 63 265 6.0 16.0 0.00 0.00 0.00 41 1010.8
20260505012510 63 212 5.0 14.0 0.00 0.00 0.00 41 1010.7
20260505012257 63 189 6.0 14.0 0.00 0.00 0.00 41 1010.7
20260505011508 63 182 7.0 15.0 0.00 0.00 0.00 40 1010.6
20260505011014 64 183 6.0 15.0 0.00 0.00 0.00 40 1010.5
20260505010505 64 211 6.0 13.0 0.00 0.00 0.00 40 1010.5
20260505010007 64 203 7.0 15.0 0.00 0.00 0.00 39 1010.4
20260505005507 64 251 6.0 15.0 0.00 0.00 0.00 38 1010.3
20260505005009 64 214 6.0 13.0 0.00 0.00 0.00 38 1010.2
20260505004511 64 220 7.0 17.0 0.00 0.00 0.00 38 1010.0
20260505004008 65 175 8.0 17.0 0.00 0.00 0.00 38 1010.0
20260505003506 65 188 6.0 14.0 0.00 0.00 0.00 37 1009.9
20260505003012 65 186 6.0 13.0 0.00 0.00 0.00 37 1009.7
20260505002506 65 195 7.0 17.0 0.00 0.00 0.00 36 1009.5
20260505002007 66 139 8.0 17.0 0.00 0.00 0.00 36 1009.4
20260505001746 66 247 8.0 18.0 0.00 0.00 0.00 36 1009.1
20260505001010 66 232 8.0 18.0 0.00 0.00 0.00 35 1009.0
20260505000505 67 194 8.0 21.0 0.00 0.00 0.00 34 1008.9
20260505000008 67 232 7.0 21.0 0.00 0.00 0.00 33 1008.7
20260504235507 68 201 7.0 18.0 0.00 0.00 0.00 33 1008.8
20260504235010 68 239 10.0 20.0 0.00 0.00 0.00 31 1008.6
20260504234745 69 188 7.0 20.0 0.00 0.00 0.00 31 1008.5
20260504234000 69 220 4.0 10.0 0.00 0.00 0.00 28 1008.4
20260504233735 70 166 4.0 11.0 0.00 0.00 0.00 28 1008.2
20260504232953 70 265 4.0 11.0 0.00 0.00 0.00 27 1008.2
20260504232453 70 241 3.0 9.0 0.00 0.00 0.00 27 1008.1
20260504231954 71 243 3.0 9.0 0.00 0.00 0.00 27 1008.0
20260504231451 71 276 3.0 7.0 0.00 0.00 0.00 26 1007.9
20260504230952 71 221 4.0 12.0 0.00 0.00 0.00 26 1007.9
20260504230445 71 257 5.0 12.0 0.00 0.00 0.00 26 1007.9
20260504225944 71 199 4.0 10.0 0.00 0.00 0.00 26 1007.8
20260504225722 71 234 3.0 9.0 0.00 0.00 0.00 26 1007.8
20260504225353 71 278 5.0 12.0 0.00 0.00 0.00 25 1007.8
20260504225348 71 245 4.0 11.0 0.00 0.00 0.00 25 1007.7
20260504225035 71 230 3.0 8.0 0.00 0.00 0.00 26 1007.7
20260504223438 72 228 6.0 12.0 0.00 0.00 0.00 24 1007.7
20260504222937 72 247 6.0 14.0 0.00 0.00 0.00 25 1007.6
20260504222435 72 278 6.0 17.0 0.00 0.00 0.00 25 1007.6
20260504221934 72 236 7.0 17.0 0.00 0.00 0.00 26 1007.6
20260504221435 72 230 7.0 17.0 0.00 0.00 0.00 25 1007.6
20260504220935 72 231 5.0 12.0 0.00 0.00 0.00 25 1007.6
20260504220710 72 210 4.0 11.0 0.00 0.00 0.00 26 1007.6
20260504220208 72 227 4.0 11.0 0.00 0.00 0.00 25 1007.7
20260504215422 72 221 6.0 19.0 0.00 0.00 0.00 25 1007.6
20260504214919 72 229 6.0 19.0 0.00 0.00 0.00 23 1007.7
20260504214421 73 267 5.0 13.0 0.00 0.00 0.00 24 1007.7
20260504213920 73 254 5.0 11.0 0.00 0.00 0.00 24 1007.8
20260504213419 73 205 4.0 11.0 0.00 0.00 0.00 24 1007.8
20260504212915 73 274 5.0 18.0 0.00 0.00 0.00 25 1007.7
20260504212415 73 261 6.0 18.0 0.00 0.00 0.00 24 1007.7
20260504211930 73 218 5.0 12.0 0.00 0.00 0.00 24 1007.8
20260504211411 73 261 5.0 15.0 0.00 0.00 0.00 24 1007.8
20260504210913 73 216 6.0 15.0 0.00 0.00 0.00 23 1007.8
20260504210411 73 206 6.0 13.0 0.00 0.00 0.00 24 1007.7
20260504205912 73 261 6.0 13.0 0.00 0.00 0.00 23 1007.8
20260504205644 73 278 6.0 13.0 0.00 0.00 0.00 23 1007.7
20260504204907 73 281 6.0 13.0 0.00 0.00 0.00 24 1007.9
20260504204409 73 274 6.0 11.0 0.00 0.00 0.00 24 1007.7
20260504203909 72 231 7.0 17.0 0.00 0.00 0.00 23 1007.7
20260504203409 73 226 8.0 17.0 0.00 0.00 0.00 23 1007.7
20260504203149 73 253 8.0 16.0 0.00 0.00 0.00 23 1007.6
20260504202410 73 240 7.0 16.0 0.00 0.00 0.00 22 1007.7
20260504201923 73 243 6.0 18.0 0.00 0.00 0.00 23 1007.7
20260504201648 73 222 6.0 18.0 0.00 0.00 0.00 24 1007.7
20260504200900 73 249 9.0 25.0 0.00 0.00 0.00 24 1007.7
20260504200352 73 205 10.0 25.0 0.00 0.00 0.00 22 1007.7
20260504195846 73 211 8.0 16.0 0.00 0.00 0.00 22 1007.7
20260504195345 74 215 7.0 16.0 0.00 0.00 0.00 22 1007.9
20260504194844 74 291 6.0 16.0 0.00 0.00 0.00 22 1007.8
20260504194346 74 240 7.0 15.0 0.00 0.00 0.00 22 1007.8
20260504194124 73 197 8.0 15.0 0.00 0.00 0.00 22 1007.9
20260504193345 73 236 8.0 14.0 0.00 0.00 0.00 22 1007.7
20260504192846 73 207 9.0 18.0 0.00 0.00 0.00 22 1007.8
20260504192345 73 232 8.0 18.0 0.00 0.00 0.00 21 1007.7
20260504191845 73 275 7.0 15.0 0.00 0.00 0.00 22 1007.7
20260504191345 73 302 8.0 15.0 0.00 0.00 0.00 22 1007.7
20260504190848 73 217 8.0 21.0 0.00 0.00 0.00 22 1007.8
20260504190626 73 167 9.0 21.0 0.00 0.00 0.00 22 1007.8
20260504185845 73 220 8.0 16.0 0.00 0.00 0.00 22 1008.0
20260504185627 73 243 7.0 16.0 0.00 0.00 0.00 24 1008.1
20260504184845 73 264 7.0 18.0 0.00 0.00 0.00 22 1008.1
20260504184347 73 193 6.0 18.0 0.00 0.00 0.00 24 1008.1
20260504183848 73 161 6.0 21.0 0.00 0.00 0.00 23 1008.2
20260504183341 73 149 7.0 21.0 0.00 0.00 0.00 23 1008.2
20260504183127 73 217 7.0 20.0 0.00 0.00 0.00 23 1008.3
20260504182337 72 253 8.0 20.0 0.00 0.00 0.00 22 1008.2
20260504181841 72 203 9.0 24.0 0.00 0.00 0.00 24 1008.2
20260504181335 73 142 8.0 24.0 0.00 0.00 0.00 22 1008.1
20260504180904 72 250 8.0 22.0 0.00 0.00 0.00 22 1008.1
20260504180854 73 236 7.0 18.0 0.00 0.00 0.00 23 1008.1
20260504175835 72 306 8.0 22.0 0.00 0.00 0.00 22 1008.2
20260504175335 73 224 7.0 17.0 0.00 0.00 0.00 24 1008.2
20260504174839 72 209 7.0 17.0 0.00 0.00 0.00 23 1008.2
20260504174415 72 247 6.0 12.0 0.00 0.00 0.00 23 1008.4
20260504174402 72 211 6.0 14.0 0.00 0.00 0.00 25 1008.3
20260504173330 71 292 8.0 25.0 0.00 0.00 0.00 24 1008.5
20260504172831 71 264 8.0 25.0 0.00 0.00 0.00 24 1008.5
20260504172331 71 255 8.0 21.0 0.00 0.00 0.00 24 1008.5
20260504171836 71 234 10.0 24.0 0.00 0.00 0.00 26 1008.6
20260504171613 71 217 8.0 24.0 0.00 0.00 0.00 24 1008.7
20260504171115 71 240 8.0 20.0 0.00 0.00 0.00 26 1008.7
20260504170330 70 195 9.0 20.0 0.00 0.00 0.00 25 1008.7
20260504170118 70 220 9.0 19.0 0.00 0.00 0.00 26 1008.7
20260504160111 69 280 8.0 17.0 0.00 0.00 0.00 26 1009.1
20260504150822 66 220 8.0 14.0 0.00 0.00 0.00 30 1009.9
20260504150319 66 222 8.0 16.0 0.00 0.00 0.00 31 1010.0
20260504141309 63 285 7.0 16.0 0.00 0.00 0.00 34 1010.6
20260504140806 63 287 7.0 16.0 0.00 0.00 0.00 34 1010.5
20260504140307 62 243 7.0 16.0 0.00 0.00 0.00 36 1010.5
20260504130758 59 245 6.0 14.0 0.00 0.00 0.00 37 1011.1
20260504130252 59 248 5.0 14.0 0.00 0.00 0.00 38 1011.2
20260504120233 51 226 4.0 12.0 0.00 0.00 0.00 49 1011.7
20260504110223 46 203 0.0 0.0 0.00 0.00 0.00 55 1011.8
20260504100446 45 203 0.0 0.0 0.00 0.00 0.00 54 1011.7
20260504081653 44 209 1.0 3.0 0.00 0.00 0.00 57 1011.6
20260504081152 44 209 1.0 3.0 0.00 0.00 0.00 57 1011.6
20260504080652 44 208 2.0 3.0 0.00 0.00 0.00 57 1011.4
20260504080443 44 214 1.0 3.0 0.00 0.00 0.00 56 1011.6
20260504070150 41 268 1.0 2.0 0.00 0.00 0.00 62 1011.5
20260504060134 37 241 0.0 2.0 0.00 0.00 0.00 66 1011.4
20260504050621 36 284 0.0 2.0 0.00 0.00 0.00 62 1011.6
20260504050108 36 284 0.0 2.0 0.00 0.00 0.00 61 1011.6
20260504045607 36 284 0.0 0.0 0.00 0.00 0.00 61 1011.7
20260504045108 36 284 0.0 0.0 0.00 0.00 0.00 61 1011.6
20260504044845 36 284 0.0 0.0 0.00 0.00 0.00 61 1011.5
20260504044108 36 284 0.0 0.0 0.00 0.00 0.00 61 1011.6
20260504043607 37 284 0.0 0.0 0.00 0.00 0.00 60 1011.5
20260504043109 37 284 0.0 0.0 0.00 0.00 0.00 60 1011.4
20260504042604 37 284 0.0 0.0 0.00 0.00 0.00 60 1011.4
20260504042101 37 284 0.0 0.0 0.00 0.00 0.00 60 1011.4
20260504041603 37 284 0.0 0.0 0.00 0.00 0.00 60 1011.4
20260504041101 37 284 0.0 0.0 0.00 0.00 0.00 60 1011.5
20260504040600 37 284 0.0 0.0 0.00 0.00 0.00 59 1011.5
20260504035558 37 284 0.0 0.0 0.00 0.00 0.00 58 1011.3
20260504035051 38 284 0.0 0.0 0.00 0.00 0.00 58 1011.3
20260504034551 38 284 0.0 0.0 0.00 0.00 0.00 57 1011.2
20260504034051 38 284 0.0 0.0 0.00 0.00 0.00 57 1011.3
20260504033554 38 284 0.0 0.0 0.00 0.00 0.00 57 1011.3
20260504033054 38 284 0.0 0.0 0.00 0.00 0.00 57 1011.2
20260504032552 38 284 0.0 0.0 0.00 0.00 0.00 57 1011.2
20260504032051 39 284 0.0 0.0 0.00 0.00 0.00 56 1011.2
20260504031552 39 284 0.0 0.0 0.00 0.00 0.00 56 1011.2
20260504031055 39 284 0.0 0.0 0.00 0.00 0.00 56 1011.3
20260504030551 39 284 0.0 0.0 0.00 0.00 0.00 56 1011.3
20260504025552 40 284 0.0 0.0 0.00 0.00 0.00 55 1011.2
20260504025051 40 284 0.0 0.0 0.00 0.00 0.00 55 1011.2
20260504024829 40 284 0.0 0.0 0.00 0.00 0.00 54 1011.2
20260504024339 40 284 0.0 0.0 0.00 0.00 0.00 54 1011.2
20260504023551 41 284 0.0 1.0 0.00 0.00 0.00 53 1011.3
20260504023051 41 284 0.0 1.0 0.00 0.00 0.00 53 1011.3
20260504022553 41 284 0.0 1.0 0.00 0.00 0.00 52 1011.2
20260504022047 42 284 0.0 0.0 0.00 0.00 0.00 51 1011.3
20260504021547 42 284 0.0 0.0 0.00 0.00 0.00 51 1011.1
20260504021327 42 284 0.0 0.0 0.00 0.00 0.00 50 1011.1
20260504020547 43 284 0.0 0.0 0.00 0.00 0.00 50 1011.5
20260504020056 43 284 0.0 0.0 0.00 0.00 0.00 49 1011.1
20260504015544 44 284 0.0 0.0 0.00 0.00 0.00 49 1011.0
20260504015043 44 284 0.0 0.0 0.00 0.00 0.00 48 1011.0